Погода в Шилыкове

Россия / Ивановская область     56°55′21″N   40°44′21″E
темп.,
°C
ветер,
м/с
пор.,
м/с
влажн.,
%
обл.,
%
осадки,
мм/ч
давл.,
гПа
погр.,
м
25 февраля, чт
чт2500:00−16ю51094100 0.4 1027455
03:00−15ю51095100 1.3 1024474
06:00−14ю51195100 1.9 1019442
09:00−12ю4995100 4.8 1014420
12:00−8ю4795100 2.6 1011275
15:00−5ю1197100 3.3 101160
18:00−1с1299100 0.3 101175
21:000сз1399100 0.4 1012112
26 февраля, пт
пт2600:00+1з3798100 0.1 1011276
03:00−1зюз2497100 0.1 1010101
06:00+1ююз3599100 0.6 1007141
09:00+1юз3899100 2.4 1004243
12:00+2юз412100100 2.4 1000386
15:00+2зюз51499100 4.4 998668
18:00+2з61497100 0.5 996871
21:00+1з61296100 0.6 995919
27 февраля, сб
сб2700:00+1зсз71497100 1.1 9941036
03:000зсз71397100 1.6 9961007
06:00−7ссз61493100 1.1 997790
09:00−9ссз51188100 1.4 1000642
12:00−8ссз5988100 0.0 1002575
15:00−7ссз4888100 0.1 1005609
18:00−3ссз279798 0.1 1005290
21:00−5с279799 0.4 1007270
28 февраля, вс
вс2800:00−7с239692 0.1 100864
03:00−8с249688 0.1 1010122
06:00−9с279687 0.0 1012214
09:00−8с379284 0.1 1014420
12:00−6с488797 0.1 1015726
15:00−5с488799 0.1 1017747
18:00−6с3992100 0.1 1018713
21:00−7с2994100 0.2 1021514
1 марта, пн
пн100:00−9сз259492 0.0 1022115
03:00−9сз269593 0.1 1024143
06:00−10сз239592 0.0 102587
09:00−8з259547 0.0 1026155
12:00−3з478762 0.0 1025482
15:00−1з598657 0.0 1024553
18:00−2з4119489 0.1 1023601
21:000з5129395 0.1 1022670